Location: Newark
(52.1031°N, 9.3600°E)
Time: 17:17:39
(UTC+00:00)

Envisat - Visible Passes

Search period start: 21 October 2019 00:00
Search period end: 31 October 2019 00:00
Orbit: 764 x 766 km, 98.1° (Epoch: 21 October)

Date Brightness Start Highest point End Pass type
(mag) Time Alt. Az. Time Alt. Az. Time Alt. Az.
21 Oct 3.0 16:56:11 10° SSE 17:01:13 68° ENE 17:06:17 10° N visible
21 Oct 5.6 18:36:56 10° SW 18:40:44 21° W 18:44:34 10° NW visible
22 Oct 6.2 05:00:31 10° NE 05:03:33 16° E 05:06:35 10° ESE visible
22 Oct 4.4 17:58:51 10° SSW 18:03:37 40° W 18:08:25 10° NNW visible
23 Oct 3.2 17:21:37 10° S 17:26:42 78° WSW 17:31:50 10° NNW visible
23 Oct 6.1 19:04:16 10° WSW 19:06:36 13° W 19:08:57 10° WNW visible
24 Oct 5.7 05:25:13 10° NE 05:29:23 25° E 05:33:33 10° SSE visible
24 Oct 3.1 16:45:01 10° SE 16:49:59 56° ENE 16:54:58 10° N visible
24 Oct 5.3 18:25:10 10° SSW 18:29:21 25° W 18:33:33 10° NW visible
25 Oct 6.3 04:49:53 10° ENE 04:52:07 13° E 04:54:21 10° ESE visible
25 Oct 4.0 17:47:23 10° S 17:52:18 49° W 17:57:14 10° NNW visible
26 Oct 3.0 17:10:21 10° SSE 17:15:26 87° ENE 17:20:34 10° NNW visible
26 Oct 5.9 18:52:04 10° SW 18:55:10 16° W 18:58:17 10° NW visible
27 Oct 5.9 05:14:12 10° NE 05:18:00 21° E 05:21:46 10° SE visible
27 Oct 3.3 16:33:55 10° SE 16:38:46 46° ENE 16:43:37 10° N visible
27 Oct 4.9 18:13:30 10° SSW 18:17:58 31° W 18:22:28 10° NNW visible
28 Oct 6.7 04:40:08 10° ENE 04:40:40 10° E 04:41:12 10° E visible
28 Oct 3.6 17:35:58 10° S 17:40:58 59° W 17:46:02 10° NNW visible
29 Oct 2.9 16:59:07 10° SSE 17:04:10 73° ENE 17:09:16 10° NNW visible
29 Oct 5.6 18:40:07 10° SW 18:43:45 20° W 18:47:25 10° NW visible
30 Oct 6.1 05:03:18 10° NE 05:06:35 17° E 05:09:51 10° SE visible
30 Oct 4.5 18:01:55 10° SSW 18:06:37 37° W 18:11:20 10° NNW visible
